sat.trackr.live / text

‹ back to catalog

STARLINK-33692

NORAD 63408 · 2025-065K

PAYLOAD ACTIVE UNKNOWN

§ Identity

Operator
Country
US
Launch date
2025-03-31
Launch site
AFETR
Launch vehicle
Mass (kg)
RCS (m²)

Purposes: comms

External: N2YO · Heavens-Above · Gunter

§ Orbital elements

Epoch: 2026-09-19T22:33:10.933632Z

Period
94.27 min
Inclination
43.0025°
Eccentricity
0.0002662
Mean motion
15.27591355 rev/d
Perigee alt
481.2 km
Apogee alt
484.8 km
Semi-major
6,861.2 km
B*
4.5948e-4
RAAN
93.8786°
Arg perigee
271.7080°
Mean anomaly
88.3467°
Rev number
8,250

§ Raw data

STARLINK-336921 63408U 25065K   26262.93970988  .00012408  00000+0  45948-3 0  99972 63408  43.0025  93.8786 0002662 271.7080  88.3467 15.27591355 82503

JSON: /api/v1/satellites/63408 · /tle

For live sub-satellite position, see the globe view (requires WebGL).

§ Visibility from observer

Set your observer location to see the next 7 days of passes ≥ 10°. The values pass through the URL so the page stays shareable.

No JS? Fill the form by hand. The geolocation button needs JavaScript.